Location: Mactaquac Provincial Park
(45.9573°N, 66.8897°W)
Time: 01:56:11
(UTC-04:00)

Cosmos 1867 - Visible Passes

Search period start: 25 February 2018 00:00
Search period end: 07 March 2018 00:00
Orbit: 777 x 799 km, 65.0° (Epoch: 24 February)

Date Brightness Start Highest point End Pass type
(mag) Time Alt. Az. Time Alt. Az. Time Alt. Az.
25 Feb 6.9 06:05:12 10° SE 06:07:12 12° ESE 06:09:12 10° E visible
28 Feb 5.5 06:10:22 10° S 06:15:08 32° ESE 06:19:57 10° NE visible
01 Mar 5.9 05:39:21 10° SSE 05:43:38 24° ESE 05:47:57 10° ENE visible
02 Mar 6.2 05:08:37 10° SSE 05:12:10 18° ESE 05:15:45 10° ENE visible
03 Mar 6.4 04:38:22 10° SE 04:40:45 13° ESE 04:43:08 10° E visible
03 Mar 3.7 06:18:02 10° SSW 06:23:27 81° SE 06:28:57 10° NE visible
04 Mar 4.1 05:46:30 10° SSW 05:51:50 61° ESE 05:57:14 10° NE visible
05 Mar 4.6 05:15:06 10° S 05:20:15 46° ESE 05:25:27 10° NE visible
06 Mar 5.0 04:44:02 11° S 04:48:42 34° ESE 04:53:36 10° NE visible
06 Mar 4.0 06:26:59 10° WSW 06:32:11 45° NW 06:37:27 10° NNE visible
